Reflectivity
-20 -20 -20 -20 -20 -20 -20 -20 -20 -20 -20 -20 -20 -20 -20 -17 -20 -20 -20 -20 -20 -20
-20 -20 -20 -20 -20 -20 -20 -20 -20 -20 -20 -20 -20 -20 -20 -20 -20 -20 -20 -20 -20 -19
-20 -20 -20 -20 -20 -20 -20 -20 -20 -20 -20 -20 -20 -20 -20 -20 -20 -20 -20 -20 -20 -20
-20 -20 -20 -20 -20 -20 -20 -20 -20 -20 -20 -20 -20 -20 -20 -20 -20 -20 -20 -20 -20 -20
-20 -20 -20 -20 -20 -20 -20 -20 -20 -20 -20 -20 -20 -20 -20 -20 -20 -20 -20 -20 -20 -20
-20 -20 -20 -20 -20 -20 -20 -20 -20 -20 -20 -20 -20 -20 -20 -20 -20 -20 -20 -20 -20 -20
-20 -20 -20 -20 -20 -20 -20 -20 -20 -20 -20 -20 -20 -20 -20 -20 -20 -20 -20 -20 -17 -12
-20 -20 -20 -20 -20 -20 -20 -20 -20 -20 -20 -20 -20 -20 -20 -20 -20 -20 -20 -20 -19 -20
-20 -20 -20 -20 -20 -20 -20 -20 -20 -20 -20 -20 -20 -20 -20 -20 -20 -20 -20 -20 -20 -20
-20 -20 -20 -20 -20 -20 -20 -20 -20 -20 -20 -20 -20 -20 -20 -20 -20 -20 -20 -20 -20 -20
-20 -20 -20 -20 -20 -20 -20 -20 -20 -20 -20 -20 -12 -20 -20 -20 -20 -20 -20 -20 -20 -20
-20 -20 -20 -20 -20 -20 -20 -20 -20 -20 -20 -20 -20 -12 -20 -20 -20 -20 -20 -20 -20 -20
-20 -20 -20 -20 -20 -20 -20 -20 -20 -20 -20 -20 -20 -20 -5 -20 -20 -20 -20 -20 -20 -4
-20 -20 -20 -20 -20 -20 -20 -20 -20 -20 -20 -20 -20 -20 -20 -0 -20 -20 -20 -20 -20 -20
Wind_Speed
6 4 3 5 4 4 3 4 6 6 8 9 9 9 8 7 7 8 7 9 8 6
5 6 4 6 5 3 4 6 7 7 9 9 9 9 7 7 8 8 8 8 8 7
5 5 5 5 6 6 5 5 7 8 9 8 8 9 8 7 9 9 8 7 10 9
6 5 4 4 5 6 6 7 8 9 9 8 8 8 8 8 10 10 10 10 10 11
6 5 4 6 6 6 7 7 8 8 8 8 8 9 10 10 10 11 12 12 11 12
7 5 4 6 6 7 6 7 8 8 8 8 9 9 10 10 10 10 11 11 11 12
6 4 5 7 6 7 7 7 7 8 7 8 9 10 9 10 9 10 10 12 12 11
5 4 6 7 6 7 8 7 6 7 7 7 7 8 9 9 10 10 11 11 12 12
6 6 5 6 6 5 7 6 6 7 7 7 8 17 18 12 8 10 9 9 11 10
5 5 4 6 5 4 3 2 6 6 6 6 5 17 17 15 6 6 7 7 6 9
6 5 5 6 4 3 2 3 3 5 5 6 5 18 15 15 5 5 6 5 6 5
5 6 5 4 5 3 4 4 3 3 6 6 7 17 16 9 4 4 6 7 9 6
5 5 5 4 5 3 5 4 3 5 6 11 7 14 15 10 3 6 6 6 7 21
5 5 4 2 2 7 6 6 3 4 3 4 9 7 16 17 5 4 5 6 7 8
Wind_Direction
72 68 56 51 41 33 40 47 24 29 34 29 16 10 6 29 13 13 9 9 356 340
65 67 49 50 51 30 14 52 41 39 35 29 20 12 5 33 18 21 7 13 355 352
71 65 52 39 50 41 17 41 41 50 33 27 25 17 30 36 22 22 19 13 358 9
80 57 51 50 50 35 27 42 40 44 37 24 21 23 41 34 29 24 22 11 7 356
81 58 48 65 56 41 38 51 40 37 39 21 19 32 39 36 28 22 20 9 3 355
78 55 66 71 66 50 42 53 38 33 35 22 39 42 46 38 33 24 17 12 1 353
78 95 75 79 59 58 54 45 45 32 28 29 59 46 44 44 34 28 18 19 11 354
105 85 82 80 73 54 56 46 45 41 33 36 48 62 48 41 39 31 21 12 12 3
95 91 90 83 74 71 68 51 34 22 23 30 50 56 57 50 41 31 11 8 7 359
116 101 91 88 94 80 58 34 48 28 1 2 56 57 57 49 34 21 7 356 351 4
107 111 107 103 120 109 96 81 53 16 7 3 43 61 57 46 19 4 357 347 335 354
127 118 118 115 138 144 93 65 43 9 10 9 354 65 55 41 15 359 357 354 352 39
133 136 141 173 156 146 120 99 64 49 16 19 359 38 59 50 24 29 11 5 5 23
142 147 154 133 91 133 125 106 66 47 332 353 9 11 46 60 44 42 29 24 26 18